Tri-Cities, TN

4:16 PM EDT on June 27, 2017 (GMT -0400)
Tri-Cities Regional Tennessee / Virginia

Weather History for KTRI - January, 2013

Change the Weather History Date:

Sunday, January 27, 2013

  Actual Average Record
Temperature  
Mean Temperature 35 °F 36 °F  
Max Temperature 48 °F 46 °F 67 °F (1999)
Min Temperature 21 °F 25 °F 0 °F (1987)
Degree Days  
Heating Degree Days 30 29  
Month to date heating degree days 708 809  
Since 1 July heating degree days 2375 2538  
Cooling Degree Days 0 0  
Month to date cooling degree days 0 0  
Year to date cooling degree days 0 0  
Moisture  
Dew Point 27 °F    
Average Humidity 73    
Maximum Humidity 92    
Minimum Humidity 53    
Precipitation  
Precipitation 0.02 in 0.11 in 1.85 in (1998)
Month to date precipitation 7.80 2.92  
Year to date precipitation 7.80 2.92  
Snow  
Snow 0.00 in 0.10 in - ()
Month to date snowfall 3.5 4.1  
Since 1 July snowfall 4.1 6.8  
Snow Depth 0.00 in    
Sea Level Pressure  
Sea Level Pressure 30.38 in    
Wind  
Wind Speed 3 mph (ENE)    
Max Wind Speed 9 mph    
Max Gust Speed 12 mph    
Visibility 9 miles    
Events Rain    
T = Trace of Precipitation, MM = Missing Value Source: NWS Daily Summary

Daily Weather History Graph

Daily Weather History Graph

Search for Another Location

Airport or City:

Trip Planner

Search our weather history database for the weather conditions in past years. The results will help you decide how hot, cold, wet, or windy it might be!

Date:

Astronomy

Jan. 27, 2013 Rise Set
Actual Time 7:34 AM EST 5:50 PM EST
Civil Twilight 7:07 AM EST 6:18 PM EST
Nautical Twilight 6:36 AM EST 6:49 PM EST
Astronomical Twilight 6:05 AM EST 7:19 PM EST
Moon 6:40 PM EST 7:29 AM EST
Length of Visible Light 11h 10m
Length of Day
10h 16m
Full, 100% of the Moon is Illuminated
Jan 27
Full
Feb 3
Last Quarter
Feb 10
New
Feb 17
First Quarter
Feb 25
Full

Hourly Weather History & Observations

Time (EST) Temp. Windchill Dew Point Humidity Pressure Visibility Wind Dir Wind Speed Gust Speed Precip Events Conditions
12:53 AM 27.0 °F - 24.1 °F 89% 30.38 in 6.0 mi Calm Calm - N/A   Clear
1:53 AM 25.0 °F - 21.9 °F 88% 30.38 in 8.0 mi Calm Calm - N/A   Clear
2:53 AM 25.0 °F - 21.9 °F 88% 30.38 in 8.0 mi Calm Calm - N/A   Clear
3:53 AM 24.1 °F - 21.0 °F 88% 30.37 in 8.0 mi Calm Calm - N/A   Clear
4:00 AM - - - N/A% - - North - - N/A   Unknown
4:53 AM 25.0 °F - 21.9 °F 88% 30.37 in 8.0 mi Calm Calm - N/A   Clear
5:53 AM 23.0 °F - 19.9 °F 88% 30.38 in 9.0 mi Calm Calm - N/A   Clear
6:53 AM 21.9 °F 17.2 °F 19.9 °F 92% 30.40 in 9.0 mi NNE 3.5 mph - N/A   Clear
7:53 AM 23.0 °F 18.4 °F 19.9 °F 88% 30.41 in 9.0 mi NNE 3.5 mph - N/A   Partly Cloudy
8:53 AM 28.0 °F 24.2 °F 24.1 °F 85% 30.42 in 10.0 mi ENE 3.5 mph - N/A   Partly Cloudy
9:53 AM 30.9 °F 24.3 °F 26.1 °F 82% 30.43 in 10.0 mi East 6.9 mph - N/A   Scattered Clouds
10:53 AM 35.1 °F 30.1 °F 27.0 °F 72% 30.44 in 10.0 mi Variable 5.8 mph - N/A   Scattered Clouds
11:53 AM 39.0 °F - 28.0 °F 65% 30.42 in 10.0 mi Calm Calm - N/A   Scattered Clouds
12:53 PM 43.0 °F 41.3 °F 28.9 °F 58% 30.39 in 10.0 mi East 3.5 mph - N/A   Scattered Clouds
1:53 PM 46.9 °F - 30.0 °F 52% 30.37 in 10.0 mi Calm Calm - N/A   Mostly Cloudy
2:53 PM 46.9 °F - 30.0 °F 52% 30.36 in 10.0 mi Calm Calm - N/A   Mostly Cloudy
3:53 PM 46.9 °F - 32.0 °F 56% 30.35 in 10.0 mi ENE 4.6 mph - N/A   Overcast
4:53 PM 46.0 °F 42.5 °F 32.0 °F 58% 30.35 in 10.0 mi East 6.9 mph - N/A   Overcast
5:53 PM 44.1 °F 40.8 °F 33.1 °F 65% 30.36 in 10.0 mi ENE 5.8 mph - N/A   Overcast
6:53 PM 43.0 °F 40.3 °F 33.1 °F 68% 30.36 in 10.0 mi ENE 4.6 mph - N/A   Overcast
7:53 PM 42.1 °F 38.4 °F 32.0 °F 67% 30.36 in 10.0 mi ENE 5.8 mph - N/A   Overcast
8:53 PM 41.0 °F - 30.0 °F 65% 30.37 in 10.0 mi Calm Calm - 0.00 in Rain Light Rain
9:53 PM 39.9 °F - 32.0 °F 73% 30.35 in 8.0 mi Calm Calm - 0.01 in Rain Light Rain
10:53 PM 37.9 °F 34.4 °F 34.0 °F 86% 30.33 in 9.0 mi East 4.6 mph - 0.01 in   Overcast
11:53 PM 37.9 °F 34.4 °F 33.1 °F 83% 30.32 in 9.0 mi ENE 4.6 mph - N/A   Overcast